| time (UTC) | temp F | wind direction | speed MPH | gust MPH | rain 1hr in | rain 24hr in | rain mn in | humidity % | barometer mb |
| 20260508060255 | 47 | 52 | 4.0 | 7.0 | 0.00 | 0.01 | 0.01 | 87 | 1005.5 |
| 20260508054800 | 47 | 69 | 3.0 | 8.0 | 0.00 | 0.01 | 0.01 | 87 | 1005.5 |
| 20260508053248 | 47 | 55 | 6.0 | 8.0 | 0.00 | 0.01 | 0.01 | 88 | 1005.3 |
| 20260508051739 | 47 | 93 | 5.0 | 11.0 | 0.00 | 0.01 | 0.01 | 88 | 1005.4 |
| 20260508050231 | 47 | 56 | 4.0 | 11.0 | 0.00 | 0.01 | 0.01 | 88 | 1005.3 |
| 20260508044739 | 48 | 65 | 7.0 | 11.0 | 0.00 | 0.01 | 0.01 | 87 | 1005.2 |
| 20260508043233 | 48 | 54 | 6.0 | 12.0 | 0.00 | 0.01 | 0.01 | 87 | 1005.0 |
| 20260508041738 | 48 | 82 | 8.0 | 11.0 | 0.00 | 0.01 | 0.01 | 87 | 1005.1 |
| 20260508040245 | 49 | 55 | 3.0 | 7.0 | 0.00 | 0.01 | 0.01 | 88 | 1004.9 |
| 20260508034737 | 49 | 51 | 7.0 | 8.0 | 0.00 | 0.01 | 0.01 | 87 | 1005.1 |
| 20260508033250 | 49 | 75 | 3.0 | 6.0 | 0.00 | 0.01 | 0.01 | 87 | 1005.2 |
| 20260508031736 | 49 | 59 | 6.0 | 7.0 | 0.00 | 0.01 | 0.01 | 87 | 1005.3 |
| 20260508030235 | 49 | 41 | 3.0 | 8.0 | 0.00 | 0.01 | 0.01 | 87 | 1005.1 |
| 20260508024740 | 49 | 64 | 5.0 | 8.0 | 0.00 | 0.01 | 0.01 | 87 | 1005.1 |
| 20260508023233 | 49 | 52 | 6.0 | 9.0 | 0.00 | 0.01 | 0.01 | 87 | 1006.0 |
| 20260508021737 | 50 | 54 | 6.0 | 8.0 | 0.00 | 0.01 | 0.01 | 87 | 1006.2 |
| 20260508020233 | 50 | 38 | 4.0 | 8.0 | 0.00 | 0.01 | 0.01 | 86 | 1006.4 |
| 20260508014740 | 50 | 31 | 6.0 | 7.0 | 0.00 | 0.01 | 0.01 | 84 | 1006.5 |
| 20260508013302 | 50 | 75 | 3.0 | 8.0 | 0.00 | 0.01 | 0.01 | 83 | 1006.5 |
| 20260508011745 | 51 | 58 | 4.0 | 7.0 | 0.01 | 0.01 | 0.01 | 83 | 1006.7 |
| 20260508010242 | 51 | 44 | 4.0 | 8.0 | 0.01 | 0.01 | 0.01 | 82 | 1006.8 |
| 20260508004746 | 52 | 61 | 4.0 | 8.0 | 0.01 | 0.01 | 0.01 | 81 | 1006.9 |
| 20260508003247 | 52 | 23 | 7.0 | 10.0 | 0.01 | 0.01 | 0.01 | 77 | 1007.0 |
| 20260508001740 | 53 | 292 | 0.0 | 4.0 | 0.00 | 0.00 | 0.00 | 75 | 1007.0 |
| 20260508000231 | 53 | 278 | 2.0 | 6.0 | 0.00 | 0.00 | 0.00 | 74 | 1007.2 |
| 20260507234756 | 53 | 215 | 3.0 | 7.0 | 0.00 | 0.00 | 0.00 | 73 | 1007.2 |
| 20260507233249 | 53 | 223 | 3.0 | 8.0 | 0.00 | 0.00 | 0.00 | 72 | 1007.3 |
| 20260507231732 | 53 | 141 | 3.0 | 8.0 | 0.00 | 0.00 | 0.00 | 72 | 1007.2 |
| 20260507230247 | 53 | 169 | 4.0 | 11.0 | 0.00 | 0.00 | 0.00 | 71 | 1006.9 |
| 20260507224734 | 53 | 155 | 5.0 | 12.0 | 0.00 | 0.00 | 0.00 | 70 | 1007.0 |
| 20260507223241 | 53 | 162 | 2.0 | 8.0 | 0.00 | 0.00 | 0.00 | 69 | 1007.0 |
| 20260507221739 | 52 | 144 | 2.0 | 5.0 | 0.00 | 0.00 | 0.00 | 70 | 1007.0 |
| 20260507220256 | 52 | 144 | 2.0 | 6.0 | 0.00 | 0.00 | 0.00 | 71 | 1007.4 |
| 20260507214738 | 52 | 141 | 2.0 | 6.0 | 0.00 | 0.00 | 0.00 | 71 | 1007.4 |
| 20260507213242 | 52 | 134 | 2.0 | 8.0 | 0.00 | 0.00 | 0.00 | 70 | 1007.2 |
| 20260507211746 | 53 | 155 | 4.0 | 11.0 | 0.00 | 0.00 | 0.00 | 68 | 1007.1 |
| 20260507210259 | 53 | 141 | 4.0 | 13.0 | 0.00 | 0.00 | 0.00 | 66 | 1006.9 |
| 20260507204743 | 55 | 138 | 4.0 | 12.0 | 0.00 | 0.00 | 0.00 | 62 | 1006.6 |
| 20260507203247 | 56 | 99 | 4.0 | 17.0 | 0.00 | 0.00 | 0.00 | 57 | 1006.1 |
| 20260507201738 | 58 | 106 | 3.0 | 7.0 | 0.00 | 0.00 | 0.00 | 52 | 1006.5 |
| 20260507200256 | 59 | 109 | 3.0 | 6.0 | 0.00 | 0.00 | 0.00 | 50 | 1005.6 |
| 20260507194744 | 60 | 161 | 1.0 | 3.0 | 0.00 | 0.00 | 0.00 | 45 | 1005.5 |
| 20260507193236 | 61 | 168 | 1.0 | 2.0 | 0.00 | 0.00 | 0.00 | 44 | 1006.1 |
| 20260507191744 | 61 | 169 | 1.0 | 4.0 | 0.00 | 0.00 | 0.00 | 42 | 1006.1 |
| 20260507190234 | 62 | 168 | 0.0 | 5.0 | 0.00 | 0.00 | 0.00 | 41 | 1005.2 |
| 20260507184743 | 62 | 281 | 1.0 | 3.0 | 0.00 | 0.00 | 0.00 | 39 | 1005.0 |
| 20260507183233 | 62 | 281 | 0.0 | 3.0 | 0.00 | 0.00 | 0.00 | 42 | 1004.9 |
| 20260507181743 | 61 | 281 | 0.0 | 2.0 | 0.00 | 0.00 | 0.00 | 44 | 1004.8 |
| 20260507180304 | 60 | 281 | 0.0 | 7.0 | 0.00 | 0.00 | 0.00 | 45 | 1005.0 |
| 20260507174737 | 60 | 287 | 4.0 | 11.0 | 0.00 | 0.00 | 0.00 | 44 | 1005.0 |
| 20260507173241 | 61 | 229 | 5.0 | 15.0 | 0.00 | 0.00 | 0.00 | 42 | 1005.1 |
| 20260507171732 | 61 | 257 | 7.0 | 20.0 | 0.00 | 0.00 | 0.00 | 42 | 1005.2 |
| 20260507170248 | 61 | 217 | 13.0 | 18.0 | 0.00 | 0.00 | 0.00 | 44 | 1005.4 |
| 20260507164738 | 62 | 219 | 12.0 | 19.0 | 0.00 | 0.00 | 0.00 | 46 | 1005.1 |
| 20260507163241 | 64 | 216 | 3.0 | 10.0 | 0.00 | 0.00 | 0.00 | 37 | 1005.0 |
| 20260507161752 | 64 | 213 | 8.0 | 13.0 | 0.00 | 0.00 | 0.00 | 32 | 1004.9 |
| 20260507160237 | 63 | 222 | 5.0 | 8.0 | 0.00 | 0.00 | 0.00 | 35 | 1004.8 |
| 20260507154739 | 61 | 241 | 5.0 | 12.0 | 0.00 | 0.00 | 0.00 | 41 | 1005.0 |
| 20260507153233 | 60 | 212 | 11.0 | 18.0 | 0.00 | 0.00 | 0.00 | 43 | 1005.1 |
| 20260507151741 | 61 | 209 | 13.0 | 21.0 | 0.00 | 0.00 | 0.00 | 45 | 1005.1 |
| 20260507150238 | 62 | 215 | 16.0 | 30.0 | 0.00 | 0.00 | 0.00 | 46 | 1004.9 |
| 20260507144745 | 66 | 213 | 8.0 | 16.0 | 0.00 | 0.00 | 0.00 | 34 | 1005.4 |
| 20260507143236 | 65 | 200 | 3.0 | 10.0 | 0.00 | 0.00 | 0.00 | 33 | 1004.6 |
| 20260507141743 | 64 | 155 | 4.0 | 12.0 | 0.00 | 0.00 | 0.00 | 33 | 1004.8 |
| 20260507140235 | 65 | 213 | 9.0 | 17.0 | 0.00 | 0.00 | 0.00 | 32 | 1005.0 |
| 20260507134745 | 65 | 220 | 5.0 | 10.0 | 0.00 | 0.00 | 0.00 | 31 | 1005.9 |
| 20260507133236 | 65 | 148 | 2.0 | 10.0 | 0.00 | 0.00 | 0.00 | 35 | 1006.1 |
| 20260507131744 | 66 | 128 | 4.0 | 11.0 | 0.00 | 0.00 | 0.00 | 33 | 1006.2 |
| 20260507130256 | 65 | 64 | 2.0 | 11.0 | 0.00 | 0.00 | 0.00 | 31 | 1005.6 |
| 20260507124748 | 64 | 69 | 3.0 | 7.0 | 0.00 | 0.00 | 0.00 | 37 | 1005.7 |
| 20260507123259 | 63 | 210 | 0.0 | 11.0 | 0.00 | 0.00 | 0.00 | 39 | 1006.0 |
| 20260507121742 | 64 | 127 | 2.0 | 9.0 | 0.00 | 0.00 | 0.00 | 37 | 1006.2 |
| 20260507120304 | 63 | 222 | 2.0 | 8.0 | 0.00 | 0.00 | 0.00 | 39 | 1006.3 |
| 20260507114733 | 61 | 48 | 0.0 | 6.0 | 0.00 | 0.00 | 0.00 | 44 | 1006.6 |
| 20260507113256 | 59 | 35 | 6.0 | 8.0 | 0.00 | 0.00 | 0.00 | 47 | 1006.7 |
| 20260507111739 | 59 | 52 | 6.0 | 8.0 | 0.00 | 0.00 | 0.00 | 48 | 1006.9 |
| 20260507110235 | 58 | 76 | 4.0 | 8.0 | 0.00 | 0.00 | 0.00 | 52 | 1007.1 |
| 20260507104801 | 58 | 66 | 2.0 | 12.0 | 0.00 | 0.00 | 0.00 | 55 | 1007.2 |
| 20260507103229 | 58 | 119 | 5.0 | 10.0 | 0.00 | 0.00 | 0.00 | 57 | 1007.2 |
| 20260507101742 | 57 | 106 | 4.0 | 9.0 | 0.00 | 0.00 | 0.00 | 60 | 1007.6 |
| 20260507100235 | 55 | 83 | 6.0 | 8.0 | 0.00 | 0.00 | 0.00 | 63 | 1007.4 |
| 20260507094802 | 55 | 44 | 4.0 | 8.0 | 0.00 | 0.00 | 0.00 | 64 | 1007.6 |
| 20260507093231 | 54 | 76 | 2.0 | 10.0 | 0.00 | 0.00 | 0.00 | 64 | 1007.7 |
| 20260507091743 | 54 | 68 | 5.0 | 7.0 | 0.00 | 0.00 | 0.00 | 66 | 1007.6 |
| 20260507090236 | 54 | 76 | 5.0 | 7.0 | 0.00 | 0.00 | 0.00 | 65 | 1007.4 |
| 20260507084742 | 54 | 47 | 6.0 | 8.0 | 0.00 | 0.00 | 0.00 | 67 | 1007.3 |
| 20260507083246 | 53 | 72 | 6.0 | 8.0 | 0.00 | 0.00 | 0.00 | 69 | 1007.5 |
| 20260507081755 | 51 | 48 | 7.0 | 10.0 | 0.00 | 0.00 | 0.00 | 71 | 1007.6 |
| 20260507080251 | 51 | 75 | 6.0 | 11.0 | 0.00 | 0.00 | 0.00 | 73 | 1007.4 |
| 20260507074741 | 51 | 41 | 10.0 | 12.0 | 0.00 | 0.00 | 0.00 | 73 | 1007.3 |
| 20260507073318 | 50 | 42 | 6.0 | 11.0 | 0.00 | 0.00 | 0.00 | 76 | 1007.3 |
| 20260507071758 | 49 | 44 | 6.0 | 10.0 | 0.00 | 0.00 | 0.00 | 78 | 1007.6 |
| 20260507070236 | 49 | 10 | 5.0 | 8.0 | 0.00 | 0.00 | 0.00 | 78 | 1007.4 |
| 20260507064743 | 49 | 52 | 4.0 | 8.0 | 0.00 | 0.00 | 0.00 | 79 | 1007.5 |
| 20260507063233 | 49 | 75 | 4.0 | 7.0 | 0.00 | 0.00 | 0.00 | 79 | 1007.4 |
| 20260507061742 | 48 | 23 | 4.0 | 7.0 | 0.00 | 0.00 | 0.00 | 80 | 1007.6 |